SCP
2 1 0 0 0 0 0 0 0 0 0 0 0 0 0 0 0 0 0 0 0 0 0 0 0 0 0 0 0 0 0 0 0 0 0 0 0 0
1 1 1 0 0 0 0 0 0 0 0 0 0 0 0 0 0 0 0 0 0 0 0 0 0 0 0 0 0 0 0 0 0 0 0 0 0 0
1 0 0 0 0 0 0 0 0 0 0 0 0 0 0 0 0 0 0 0 0 0 0 0 0 0 0 0 0 0 0 0 0 0 0 0 0 0
0 0 0 0 0 0 0 0 0 0 1 0 0 0 0 0 0 0 0 0 0 0 0 0 0 0 0 0 0 0 0 0 0 0 0 0 0 0
0 0 0 0 0 0 0 0 0 0 1 0 0 0 0 0 0 0 0 0 0 0 0 0 0 0 0 0 -0 -0 -0 0 0 0 0 0 0 0
0 0 0 0 0 0 0 0 0 0 1 0 0 0 0 0 0 0 0 0 0 0 -0 0 0 0 -0 -0 -0 -0 -0 0 0 0 0 0 0 -0
0 0 0 0 0 0 0 0 0 1 0 0 0 0 0 0 0 0 0 0 0 0 -0 0 0 0 -0 -0 -0 -0 -0 0 0 0 0 -0 -0 -0
0 0 0 0 0 0 0 0 0 0 0 0 0 0 0 0 0 0 0 0 0 -0 0 0 0 -0 0 0 -0 -0 -0 -0 -0 0 0 0 -0 -0
0 0 0 0 0 0 0 0 -0 -0 0 0 0 0 0 0 0 0 0 0 0 0 0 -0 -0 -0 0 0 -0 -0 -0 -0 -0 -0 0 -0 -0 -0
0 0 0 0 0 0 0 0 0 0 0 0 0 0 0 0 0 0 0 0 -0 0 0 -0 -0 -0 0 0 -0 0 0 -0 -0 -0 -0 -0 -0 0
-0 -0 0 0 0 0 0 0 0 0 0 0 0 0 0 0 0 0 0 -0 -0 -0 -0 -0 0 0 0 0 0 0 0 0 0 0 -0 -0 0 0
-0 0 0 0 0 0 0 0 0 0 0 0 0 0 0 0 0 -0 -0 -0 -0 -0 -0 0 0 0 0 0 0 -0 -0 0 -0 -0 0 -0 -0 0
0 0 0 0 0 0 0 0 0 0 0 0 0 0 0 -0 -0 -0 -0 0 0 0 -0 0 0 0 0 0 0 0 0 0 0 0 0 0 0 -0
0 0 0 0 0 0 0 0 0 0 0 0 0 0 0 -0 0 0 0 0 0 0 -0 0 0 0 0 0 0 0 0 0 0 0 0 0 0 0
0 0 0 0 0 -0 0 0 0 0 0 0 0 0 0 0 0 0 0 0 0 0 0 0 -0 -0 -0 0 0 0 0 -0 0 0 0 0 0 0
-0 0 0 0 0 0 0 0 0 0 0 0 0 0 0 0 0 0 0 -0 -0 0 0 -0 0 -0 -0 -0 -0 -0 -0 -0 -0 0 0 0 0 0
0 0 0 0 0 0 0 0 0 0 0 0 0 0 0 0 0 0 0 -0 -0 -0 -0 -0 0 -0 -0 0 0 0 -0 -0 -0 -0 -0 -0 0 0
0 0 0 0 0 0 0 0 0 0 0 0 0 0 0 0 0 0 0 0 0 0 0 0 0 0 0 0 0 0 0 0 0 0 -0 -0 -0 -0
0 0 0 0 0 0 0 0 0 0 0 -0 0 0 0 0 0 0 0 0 0 0 0 0 0 0 0 0 0 0 0 0 0 0 0 0 0 0
0 0 0 0 0 0 0 0 0 0 0 0 0 0 0 0 0 0 0 0 0 0 0 0 0 0 0 0 0 -0 0 0 0 0 0 0 0 0
0 0 0 0 0 0 0 0 0 0 0 0 0 0 0 0 0 0 0 0 0 0 -0 0 0 0 -0 0 0 0 0 -0 -0 0 0 0 0 0
0 0 0 0 0 0 0 0 0 0 0 0 0 0 0 0 0 0 0 -0 -0 -0 0 0 0 0 0 0 0 0 0 0 0 0 0 0 0 -0
0 0 0 0 0 0 0 0 0 0 0 0 0 0 0 0 0 -0 -0 -0 -0 0 0 0 0 0 0 0 0 0 0 0 0 -0 -0 -0 -0 -0
Wind_Speed_500mb
37 31 31 24 24 25 27 31 37 41 37 35 30 30 22 28 33 31 26 24 16 11 4 8 13 18 19 21 24 25 27 27 29 31 34 34 30 31
42 37 35 31 30 28 28 32 36 39 44 31 32 32 27 34 36 28 21 14 7 2 7 12 14 17 22 24 23 24 25 24 25 26 26 26 28 28
48 41 40 39 37 32 32 33 39 40 45 41 38 33 33 40 37 26 19 12 9 8 11 13 17 22 24 23 22 20 22 24 24 21 22 25 28 30
56 52 46 39 41 39 35 39 41 42 37 40 40 39 36 42 32 28 19 13 11 13 15 21 23 21 29 27 26 25 23 21 23 20 23 23 22 25
55 54 49 44 45 44 43 42 38 39 43 49 41 40 42 44 38 32 21 14 14 14 18 16 22 26 30 29 29 28 26 26 24 23 24 23 24 31
62 65 58 50 52 49 45 42 40 45 41 44 43 46 50 48 45 35 28 21 13 12 14 18 16 23 30 38 39 33 30 27 24 26 25 26 29 37
56 61 64 61 60 57 46 42 38 41 51 42 45 52 57 60 57 48 36 32 23 16 19 9 13 17 29 39 43 41 38 38 32 26 27 29 29 37
68 70 61 59 59 64 65 61 52 33 47 49 45 55 61 65 62 52 45 35 27 24 14 3 10 15 29 41 45 46 46 45 35 33 38 31 32 35
64 49 49 47 51 53 50 65 62 59 39 47 44 57 54 69 70 57 42 29 24 25 15 10 5 14 24 36 44 49 51 49 37 32 35 33 31 36
59 55 54 51 47 40 33 40 42 58 67 41 45 38 57 66 66 45 37 37 27 21 15 13 4 10 17 26 36 46 50 52 49 41 32 35 34 35
56 61 57 49 49 42 42 42 36 42 41 46 42 40 52 55 52 57 50 40 28 24 18 14 12 12 14 16 30 42 48 48 49 46 36 33 37 34
48 49 51 50 42 47 42 42 31 42 43 50 46 35 32 42 59 35 34 38 24 22 19 16 14 6 10 20 19 36 51 58 58 52 47 30 33 38
46 39 38 41 41 37 34 33 38 41 49 51 44 40 41 60 53 33 3 36 25 22 19 15 5 4 13 16 23 28 39 53 63 61 57 55 39 41
46 39 36 34 34 36 36 38 38 46 52 49 52 58 75 66 37 29 24 46 36 26 21 13 16 15 15 14 15 25 38 43 51 64 64 62 54 47
40 36 33 34 39 41 46 49 45 49 57 65 81 91 68 53 49 38 34 30 24 29 28 22 15 18 19 24 20 15 18 40 45 51 62 63 70 67
28 27 29 35 46 56 52 50 48 50 59 82 100 70 67 52 38 33 31 30 32 31 33 31 30 27 27 26 26 29 31 32 35 42 44 60 66 68
32 35 51 56 63 71 57 42 49 71 87 105 82 69 57 45 41 38 37 34 32 31 28 34 31 35 39 35 35 33 33 36 34 34 36 42 59 68
55 63 66 67 77 73 62 65 79 97 109 91 70 59 55 48 46 42 38 35 36 34 36 34 33 34 36 42 42 36 33 32 32 38 43 50 60 62
60 69 80 84 85 85 94 97 104 94 79 68 61 58 53 50 49 46 43 41 41 37 32 28 26 25 32 38 32 37 30 28 30 36 37 40 60 65
75 79 87 95 99 106 112 103 80 67 62 61 57 56 55 52 50 48 46 44 42 39 36 32 30 29 33 33 29 27 24 28 28 30 27 41 49 45
82 84 92 99 108 109 91 72 62 63 62 60 58 58 55 53 51 48 47 45 42 39 38 38 43 46 49 43 46 50 44 27 25 27 26 29 32 32
77 81 98 99 88 74 63 62 63 62 63 61 60 58 56 51 50 50 49 43 41 44 45 41 39 29 30 33 36 34 38 52 51 48 42 39 35 36
92 97 83 61 60 59 57 60 61 61 60 61 59 57 54 54 51 47 44 46 46 38 37 38 33 28 29 29 30 29 29 27 31 55 55 55 55 56
Wind_Direction_500mb
236 247 258 262 265 271 271 269 269 276 274 275 274 282 271 252 258 257 248 252 260 266 318 351 340 342 337 333 325 321 309 307 297 289 286 289 296 297
234 236 245 255 263 273 277 270 262 262 268 276 262 274 257 248 243 238 229 213 197 87 40 9 354 348 349 341 338 338 330 326 322 310 300 297 295 300
233 234 241 252 264 268 274 271 262 257 260 257 264 261 252 237 230 213 199 182 133 89 45 26 19 17 11 1 354 344 347 347 341 339 327 318 322 317
235 245 245 248 259 268 272 273 258 252 267 254 256 246 238 223 216 190 164 161 118 92 75 55 43 31 27 17 10 3 354 348 353 347 350 347 341 335
232 239 244 248 254 259 262 260 257 258 250 252 247 238 214 208 198 188 173 147 138 120 84 68 54 39 31 20 15 9 7 11 7 4 360 358 356 351
245 239 243 246 252 257 262 257 249 248 252 247 245 224 207 204 198 187 179 176 168 135 99 62 44 37 31 29 30 28 26 18 20 14 7 13 8 3
251 252 247 246 248 249 248 250 239 245 243 241 223 202 200 199 196 195 192 170 165 138 71 63 44 22 29 32 32 28 25 13 12 13 11 23 12 8
252 248 242 244 248 247 238 228 223 232 239 230 228 217 210 207 195 194 182 163 159 141 150 159 56 27 35 31 30 33 29 22 23 23 22 26 19 7
249 245 239 242 247 247 247 239 222 221 233 235 243 229 224 210 198 189 175 155 156 148 152 122 81 5 25 29 24 30 29 29 25 20 25 29 30 16
241 244 241 241 245 237 233 236 234 223 230 230 245 251 224 206 203 182 148 128 139 146 131 118 105 13 25 32 26 28 29 28 25 25 27 33 33 35
249 246 243 241 242 227 222 224 223 218 223 229 243 233 220 209 182 151 135 135 151 152 154 130 122 90 57 36 19 23 32 31 32 32 37 43 37 42
246 243 237 231 232 224 221 213 223 212 212 199 195 199 210 183 158 139 125 151 152 155 166 160 173 296 72 41 49 60 51 48 44 39 41 44 51 47
237 230 230 230 218 206 202 211 224 208 193 188 179 173 158 148 135 127 222 183 159 148 167 139 140 146 103 89 69 53 46 48 46 46 46 44 51 51
228 220 220 223 206 196 185 207 203 185 177 172 154 143 140 133 132 134 163 142 143 140 133 130 121 118 107 87 68 50 38 39 35 36 50 53 51 52
232 235 225 207 194 187 184 185 182 176 169 153 144 136 134 136 142 157 146 155 156 129 129 85 106 106 85 75 75 57 57 35 34 35 43 50 50 50
192 186 180 181 173 167 169 175 173 173 162 150 139 137 143 146 142 143 132 123 117 106 114 107 103 102 95 87 82 72 64 58 43 41 28 42 51 51
154 159 158 152 156 160 155 153 172 168 155 143 139 140 142 140 140 140 138 131 120 116 111 124 122 115 107 97 79 72 67 63 59 56 55 47 45 47
137 139 147 157 156 156 155 153 149 147 142 139 135 135 141 141 139 137 135 132 126 117 112 113 108 101 96 95 91 76 68 69 63 53 58 57 52 49
140 140 140 145 152 146 144 141 137 131 128 135 141 141 139 139 137 136 133 129 121 118 114 115 112 106 100 89 87 89 78 66 64 65 58 55 53 47
135 138 135 133 134 137 134 128 125 127 139 138 138 138 137 136 135 132 130 126 125 120 115 111 108 105 101 97 96 94 99 98 82 66 55 53 54 53
130 132 137 134 131 126 123 121 133 136 137 137 136 136 136 135 133 133 130 129 127 123 117 111 103 90 83 86 81 74 72 75 84 85 84 71 70 63
133 134 131 125 123 120 128 134 133 134 134 134 134 134 134 134 135 133 131 131 128 124 117 111 101 106 98 90 87 82 74 74 72 74 77 79 77 76
131 120 119 124 133 134 133 133 133 134 134 133 133 133 135 134 130 131 133 130 127 121 117 117 114 107 102 97 91 91 93 85 76 63 62 60 60 59
Wind_Speed_850mb
37 31 31 24 24 25 27 31 37 41 37 35 30 30 22 28 33 31 26 24 16 11 4 8 13 18 19 21 24 25 27 27 29 31 34 34 30 31
42 37 35 31 30 28 28 32 36 39 44 31 32 32 27 34 36 28 21 14 7 2 7 12 14 17 22 24 23 24 25 24 25 26 26 26 28 28
48 41 40 39 37 32 32 33 39 40 45 41 38 33 33 40 37 26 19 12 9 8 11 13 17 22 24 23 22 20 22 24 24 21 22 25 28 30
56 52 46 39 41 39 35 39 41 42 37 40 40 39 36 42 32 28 19 13 11 13 15 21 23 21 29 27 26 25 23 21 23 20 23 23 22 25
55 54 49 44 45 44 43 42 38 39 43 49 41 40 42 44 38 32 21 14 14 14 18 16 22 26 30 29 29 28 26 26 24 23 24 23 24 31
62 65 58 50 52 49 45 42 40 45 41 44 43 46 50 48 45 35 28 21 13 12 14 18 16 23 30 38 39 33 30 27 24 26 25 26 29 37
56 61 64 61 60 57 46 42 38 41 51 42 45 52 57 60 57 48 36 32 23 16 19 9 13 17 29 39 43 41 38 38 32 26 27 29 29 37
68 70 61 59 59 64 65 61 52 33 47 49 45 55 61 65 62 52 45 35 27 24 14 3 10 15 29 41 45 46 46 45 35 33 38 31 32 35
64 49 49 47 51 53 50 65 62 59 39 47 44 57 54 69 70 57 42 29 24 25 15 10 5 14 24 36 44 49 51 49 37 32 35 33 31 36
59 55 54 51 47 40 33 40 42 58 67 41 45 38 57 66 66 45 37 37 27 21 15 13 4 10 17 26 36 46 50 52 49 41 32 35 34 35
56 61 57 49 49 42 42 42 36 42 41 46 42 40 52 55 52 57 50 40 28 24 18 14 12 12 14 16 30 42 48 48 49 46 36 33 37 34
48 49 51 50 42 47 42 42 31 42 43 50 46 35 32 42 59 35 34 38 24 22 19 16 14 6 10 20 19 36 51 58 58 52 47 30 33 38
46 39 38 41 41 37 34 33 38 41 49 51 44 40 41 60 53 33 3 36 25 22 19 15 5 4 13 16 23 28 39 53 63 61 57 55 39 41
46 39 36 34 34 36 36 38 38 46 52 49 52 58 75 66 37 29 24 46 36 26 21 13 16 15 15 14 15 25 38 43 51 64 64 62 54 47
40 36 33 34 39 41 46 49 45 49 57 65 81 91 68 53 49 38 34 30 24 29 28 22 15 18 19 24 20 15 18 40 45 51 62 63 70 67
28 27 29 35 46 56 52 50 48 50 59 82 100 70 67 52 38 33 31 30 32 31 33 31 30 27 27 26 26 29 31 32 35 42 44 60 66 68
32 35 51 56 63 71 57 42 49 71 87 105 82 69 57 45 41 38 37 34 32 31 28 34 31 35 39 35 35 33 33 36 34 34 36 42 59 68
55 63 66 67 77 73 62 65 79 97 109 91 70 59 55 48 46 42 38 35 36 34 36 34 33 34 36 42 42 36 33 32 32 38 43 50 60 62
60 69 80 84 85 85 94 97 104 94 79 68 61 58 53 50 49 46 43 41 41 37 32 28 26 25 32 38 32 37 30 28 30 36 37 40 60 65
75 79 87 95 99 106 112 103 80 67 62 61 57 56 55 52 50 48 46 44 42 39 36 32 30 29 33 33 29 27 24 28 28 30 27 41 49 45
82 84 92 99 108 109 91 72 62 63 62 60 58 58 55 53 51 48 47 45 42 39 38 38 43 46 49 43 46 50 44 27 25 27 26 29 32 32
77 81 98 99 88 74 63 62 63 62 63 61 60 58 56 51 50 50 49 43 41 44 45 41 39 29 30 33 36 34 38 52 51 48 42 39 35 36
92 97 83 61 60 59 57 60 61 61 60 61 59 57 54 54 51 47 44 46 46 38 37 38 33 28 29 29 30 29 29 27 31 55 55 55 55 56
Wind_Direction_850mb
236 247 258 262 265 271 271 269 269 276 274 275 274 282 271 252 258 257 248 252 260 266 318 351 340 342 337 333 325 321 309 307 297 289 286 289 296 297
234 236 245 255 263 273 277 270 262 262 268 276 262 274 257 248 243 238 229 213 197 87 40 9 354 348 349 341 338 338 330 326 322 310 300 297 295 300
233 234 241 252 264 268 274 271 262 257 260 257 264 261 252 237 230 213 199 182 133 89 45 26 19 17 11 1 354 344 347 347 341 339 327 318 322 317
235 245 245 248 259 268 272 273 258 252 267 254 256 246 238 223 216 190 164 161 118 92 75 55 43 31 27 17 10 3 354 348 353 347 350 347 341 335
232 239 244 248 254 259 262 260 257 258 250 252 247 238 214 208 198 188 173 147 138 120 84 68 54 39 31 20 15 9 7 11 7 4 360 358 356 351
245 239 243 246 252 257 262 257 249 248 252 247 245 224 207 204 198 187 179 176 168 135 99 62 44 37 31 29 30 28 26 18 20 14 7 13 8 3
251 252 247 246 248 249 248 250 239 245 243 241 223 202 200 199 196 195 192 170 165 138 71 63 44 22 29 32 32 28 25 13 12 13 11 23 12 8
252 248 242 244 248 247 238 228 223 232 239 230 228 217 210 207 195 194 182 163 159 141 150 159 56 27 35 31 30 33 29 22 23 23 22 26 19 7
249 245 239 242 247 247 247 239 222 221 233 235 243 229 224 210 198 189 175 155 156 148 152 122 81 5 25 29 24 30 29 29 25 20 25 29 30 16
241 244 241 241 245 237 233 236 234 223 230 230 245 251 224 206 203 182 148 128 139 146 131 118 105 13 25 32 26 28 29 28 25 25 27 33 33 35
249 246 243 241 242 227 222 224 223 218 223 229 243 233 220 209 182 151 135 135 151 152 154 130 122 90 57 36 19 23 32 31 32 32 37 43 37 42
246 243 237 231 232 224 221 213 223 212 212 199 195 199 210 183 158 139 125 151 152 155 166 160 173 296 72 41 49 60 51 48 44 39 41 44 51 47
237 230 230 230 218 206 202 211 224 208 193 188 179 173 158 148 135 127 222 183 159 148 167 139 140 146 103 89 69 53 46 48 46 46 46 44 51 51
228 220 220 223 206 196 185 207 203 185 177 172 154 143 140 133 132 134 163 142 143 140 133 130 121 118 107 87 68 50 38 39 35 36 50 53 51 52
232 235 225 207 194 187 184 185 182 176 169 153 144 136 134 136 142 157 146 155 156 129 129 85 106 106 85 75 75 57 57 35 34 35 43 50 50 50
192 186 180 181 173 167 169 175 173 173 162 150 139 137 143 146 142 143 132 123 117 106 114 107 103 102 95 87 82 72 64 58 43 41 28 42 51 51
154 159 158 152 156 160 155 153 172 168 155 143 139 140 142 140 140 140 138 131 120 116 111 124 122 115 107 97 79 72 67 63 59 56 55 47 45 47
137 139 147 157 156 156 155 153 149 147 142 139 135 135 141 141 139 137 135 132 126 117 112 113 108 101 96 95 91 76 68 69 63 53 58 57 52 49
140 140 140 145 152 146 144 141 137 131 128 135 141 141 139 139 137 136 133 129 121 118 114 115 112 106 100 89 87 89 78 66 64 65 58 55 53 47
135 138 135 133 134 137 134 128 125 127 139 138 138 138 137 136 135 132 130 126 125 120 115 111 108 105 101 97 96 94 99 98 82 66 55 53 54 53
130 132 137 134 131 126 123 121 133 136 137 137 136 136 136 135 133 133 130 129 127 123 117 111 103 90 83 86 81 74 72 75 84 85 84 71 70 63
133 134 131 125 123 120 128 134 133 134 134 134 134 134 134 134 135 133 131 131 128 124 117 111 101 106 98 90 87 82 74 74 72 74 77 79 77 76
131 120 119 124 133 134 133 133 133 134 134 133 133 133 135 134 130 131 133 130 127 121 117 117 114 107 102 97 91 91 93 85 76 63 62 60 60 59